Location: Asheville, NC
(35.6000°N, 82.5500°W)
Time: 07:34:43
(UTC-04:00)

Vanguard 2 Rocket - Pass Details

Date: 15 December 2017
Orbit: 554 x 3327 km, 32.9° (Epoch: 18 July)

Event Time Altitude Azimuth Distance (km) Brightness Sun altitude
Rises 01:32:11 0° 284° (WNW) 6,860 - -71.0°
Reaches altitude 10° 01:36:45 10° 279° (W) 6,051 - -70.2°
Maximum altitude 01:55:01 46° 215° (SW) 3,980 - -67.0°
Exits shadow 02:10:04 14° 151° (SSE) 5,213 10.7 -64.2°
Drops below altitude 10° 02:11:23 10° 149° (SSE) 5,431 10.8 -64.0°
Sets 02:15:17 0° 143° (SE) 6,134 11.2 -63.2°
